RH
15 13 11 8 8 8 12 44 39 43 51 35 27 24 20 19 10 12 12 19 19 28 27 33 33 30 32 34 33 27 23 18 20 22 21 19 19 17 19 20 19 15 14 13 17 21 15 8 8
19 19 17 15 12 8 33 27 45 55 45 38 31 28 27 13 8 5 5 9 10 20 30 35 32 29 31 39 43 32 27 17 15 20 21 20 18 16 17 20 21 18 16 16 16 25 28 17 10
22 25 24 22 18 14 39 55 68 57 50 39 32 25 20 6 8 10 7 10 11 17 25 33 33 31 33 38 46 40 27 17 19 27 23 19 16 15 15 18 21 20 17 16 17 29 33 27 26
21 25 25 23 22 18 33 48 58 56 48 39 34 28 10 9 8 10 8 11 14 17 21 23 31 31 31 33 46 46 29 19 20 19 15 18 21 20 15 16 21 21 19 18 18 16 24 29 26
28 24 23 22 23 40 54 56 62 57 50 44 33 20 17 11 10 10 7 10 22 27 20 18 19 19 30 34 41 37 28 18 15 16 22 24 25 26 25 21 23 23 21 19 20 18 22 26 26
32 27 20 21 21 29 42 66 64 60 53 46 38 23 22 25 27 19 19 12 12 18 12 12 15 18 26 31 34 34 24 17 17 23 24 25 21 25 29 27 25 25 23 20 21 20 20 26 28
32 31 28 24 22 21 58 63 63 62 52 44 31 28 27 21 26 34 14 10 10 11 10 12 15 20 26 34 23 24 20 17 22 25 25 24 20 25 30 33 31 28 27 23 21 24 19 25 28
35 32 25 25 29 33 59 63 64 56 30 30 32 30 28 26 28 30 28 20 12 11 12 12 15 29 35 26 20 23 20 20 25 26 25 23 14 19 33 37 37 34 30 26 24 25 26 20 27
32 27 22 31 33 35 56 73 58 35 25 34 38 38 40 39 29 25 32 28 19 14 13 15 20 32 23 23 19 20 21 22 26 28 26 21 16 14 21 28 39 38 36 33 32 30 28 27 24
29 22 22 29 38 33 34 58 43 40 27 31 37 28 36 36 37 36 26 19 17 14 14 14 16 18 18 18 18 19 22 21 23 27 28 23 18 19 18 16 19 22 31 39 38 37 35 32 24
27 26 32 30 31 32 24 29 28 32 25 28 26 24 19 19 35 35 26 15 14 14 13 13 13 13 13 13 14 17 19 20 24 27 29 24 22 22 22 23 22 17 19 23 29 38 40 40 35
29 30 32 36 37 34 25 23 32 46 33 35 34 28 20 18 28 34 30 18 13 14 21 13 17 28 29 29 23 21 21 24 25 26 29 27 25 26 24 19 21 23 20 19 20 23 24 29 34
27 34 34 33 31 31 36 35 30 25 25 27 30 26 15 16 19 42 32 32 26 18 20 34 39 39 20 17 21 24 26 26 31 31 29 28 26 28 27 22 17 18 20 22 19 20 20 20 25
40 33 29 33 35 32 32 30 28 26 29 26 25 34 22 17 17 20 37 37 37 34 33 32 29 25 25 26 27 26 33 36 36 35 31 30 29 31 29 26 20 18 16 22 25 23 22 23 23
32 29 30 34 37 33 36 25 27 29 28 29 24 23 26 22 21 18 20 26 31 31 34 37 38 38 34 31 28 32 38 39 41 34 31 32 32 31 29 32 25 20 20 21 23 24 25 26 25
30 27 27 45 36 37 34 19 31 31 31 29 30 31 28 27 28 24 22 22 20 23 26 26 30 36 34 32 32 32 34 36 40 41 38 35 34 31 26 32 31 27 26 23 26 27 26 29 28
37 31 30 32 34 35 35 16 22 29 31 30 29 28 28 31 33 31 28 27 26 24 22 23 24 29 33 32 28 25 26 27 35 38 38 38 35 27 25 32 29 28 30 30 33 34 30 30 32
41 36 36 34 39 37 30 23 26 26 29 29 28 29 31 33 34 38 36 34 29 28 25 25 27 26 25 28 27 31 33 30 28 34 35 33 30 25 26 27 23 29 32 37 36 34 36 36 37
37 36 33 38 40 36 31 26 31 32 29 30 36 35 31 34 36 31 26 27 36 33 32 29 26 27 34 32 26 22 21 20 25 33 36 32 30 24 32 32 28 31 33 36 42 45 50 49 48
42 36 32 34 39 41 31 18 26 28 34 42 41 43 47 44 36 36 35 31 30 33 29 33 33 34 37 37 32 30 30 27 25 22 23 24 26 26 34 36 30 36 43 41 49 56 60 61 60
50 47 43 37 37 39 32 13 24 30 32 39 40 41 39 38 34 30 29 30 33 30 34 31 28 28 30 29 20 26 34 31 30 32 33 33 32 30 32 34 34 37 50 59 65 66 72 74 73
43 44 42 40 38 34 37 21 19 21 25 27 27 27 27 20 19 18 16 12 10 9 9 12 11 15 20 29 33 25 33 35 41 39 39 38 37 35 36 41 42 52 64 81 84 82 89 86 83
57 54 47 49 47 38 27 50 13 19 22 24 23 26 32 17 13 11 10 10 11 10 9 9 11 22 40 48 56 37 33 35 35 36 42 40 40 39 38 40 42 59 75 95 95 92 90 100 99
62 56 52 49 52 41 22 40 16 21 25 18 15 14 13 12 11 11 13 16 21 19 10 12 24 14 31 55 62 73 54 43 41 45 45 47 54 59 56 49 45 56 81 94 97 96 93 100 100
57 58 52 45 44 33 30 29 23 23 19 16 14 13 12 12 12 10 11 9 31 40 35 36 43 32 37 72 93 94 98 68 58 49 52 54 65 71 72 75 73 72 81 94 100 98 94 94 96
52 47 46 41 36 31 27 23 20 20 16 13 11 7 6 6 9 22 32 29 50 100 93 69 63 61 59 64 86 94 91 82 81 62 64 78 93 89 93 98 100 100 100 99 94 91 96 94 93
50 51 52 48 35 30 22 19 18 15 16 28 23 16 16 12 16 12 38 94 100 100 100 95 95 90 100 93 80 81 80 78 65 63 62 73 100 99 100 100 100 97 98 96 97 100 91 93 92
66 55 52 59 54 34 20 17 12 7 8 8 15 43 43 36 50 65 71 80 94 100 100 100 100 95 97 98 98 92 69 88 93 81 69 83 100 100 95 97 84 98 81 98 100 94 100 96 98
56 46 48 38 40 40 28 21 11 19 19 16 31 77 100 86 82 78 76 67 70 90 99 100 100 100 99 99 98 98 92 83 93 91 93 84 80 90 92 96 92 99 80 98 99 98 97 99 99
40 38 39 41 36 42 48 32 16 40 27 28 26 38 56 57 68 100 100 100 100 100 83 70 98 99 93 97 99 95 98 99 97 89 96 99 92 100 99 94 94 96 87 99 89 91 97 100 99
Wind_Speed
14 14 13 12 12 8 3 8 4 10 13 23 29 34 28 29 26 32 35 36 21 24 27 24 20 17 16 17 19 20 22 22 21 20 18 17 15 15 14 12 12 11 11 11 12 12 11 13 14
16 14 14 13 11 3 8 10 7 14 20 28 33 32 31 31 28 27 29 28 27 21 23 23 22 19 19 22 23 23 25 24 23 22 20 18 18 16 16 14 13 13 12 12 12 12 11 11 12
18 15 17 15 11 4 11 11 14 25 26 34 32 22 29 28 21 24 26 28 29 24 22 24 24 22 23 24 25 26 26 26 23 20 20 19 20 20 19 17 14 14 14 12 12 12 12 12 12
20 18 19 16 14 8 12 3 17 30 33 33 34 32 27 26 21 26 30 29 27 24 24 24 25 25 24 26 26 29 26 26 24 23 20 18 20 21 22 20 17 16 16 14 13 13 13 12 13
20 21 19 17 10 10 7 14 26 30 34 39 35 31 27 24 23 26 26 26 26 27 28 26 26 26 25 27 26 30 27 27 24 22 20 21 21 21 22 22 19 18 18 17 15 14 15 14 14
19 20 17 16 15 20 8 9 26 33 35 35 33 36 35 21 23 27 28 26 26 29 31 28 27 26 25 27 28 31 28 26 24 22 21 22 18 17 20 21 19 19 18 18 17 16 17 17 15
19 20 18 17 16 18 10 17 28 36 38 33 30 31 31 22 21 28 28 27 28 29 30 28 28 26 26 28 29 32 29 26 23 22 22 22 19 16 16 19 19 18 17 18 17 17 17 19 17
20 20 18 15 13 14 14 19 30 37 36 26 28 36 33 25 22 27 28 27 27 31 29 28 29 28 29 29 31 32 29 26 23 23 22 21 19 16 15 15 16 17 18 17 18 19 18 19 19
22 20 18 16 16 23 25 25 35 33 21 20 26 31 32 30 28 29 30 31 31 31 30 30 30 31 31 31 32 32 30 29 25 23 21 20 19 16 15 14 14 15 17 19 20 20 21 19 21
21 19 18 19 23 28 30 32 35 35 24 26 30 28 28 32 28 26 30 33 33 32 31 31 31 32 32 33 33 33 33 31 29 26 22 21 20 17 14 15 17 18 17 18 22 22 20 22 22
20 18 20 20 27 31 33 32 28 31 26 24 31 30 26 19 19 23 23 28 32 31 31 32 31 31 33 34 32 34 35 32 31 31 26 23 20 18 16 17 17 19 20 20 20 22 22 21 22
21 22 23 19 26 33 31 29 23 31 27 27 33 32 29 20 14 23 25 25 28 30 28 26 26 31 34 34 33 33 32 31 33 33 30 25 22 19 18 18 19 19 21 21 21 20 21 21 22
23 22 23 23 23 25 28 33 32 28 26 29 26 34 31 19 13 20 26 24 25 27 28 31 35 34 36 35 33 33 33 32 32 31 31 29 26 23 21 20 20 22 23 23 23 23 22 21 21
27 26 24 19 21 26 30 30 30 25 28 30 30 28 36 29 19 18 24 24 25 31 32 34 33 33 35 36 37 36 33 33 31 30 30 29 27 24 23 22 21 23 25 24 23 23 25 25 23
28 28 27 19 22 22 32 32 28 26 28 33 32 31 31 32 30 26 19 23 26 29 33 35 36 36 37 38 40 38 36 35 33 29 29 28 29 27 26 25 23 24 25 26 26 25 23 24 26
27 30 28 19 27 23 31 32 28 27 32 33 32 32 34 31 31 36 31 24 26 29 30 33 30 33 36 37 39 38 38 37 36 32 31 30 31 30 29 28 27 26 26 28 27 27 26 25 26
24 31 32 27 27 28 32 35 28 25 30 32 34 33 35 35 34 32 38 38 35 31 33 30 32 31 33 36 37 36 37 37 37 34 35 34 35 34 32 30 31 29 29 29 30 30 30 29 29
29 33 32 33 28 31 34 35 35 34 32 30 33 31 33 36 33 33 35 40 44 40 38 35 31 29 36 39 40 39 39 38 38 38 39 39 38 37 35 33 33 32 32 31 33 32 31 31 30
35 36 36 35 35 39 39 42 40 42 43 41 34 36 36 34 36 36 39 39 39 41 43 37 34 30 33 40 43 43 42 42 40 39 43 43 41 40 39 37 37 36 36 36 36 34 32 33 32
40 41 41 40 37 39 41 43 42 45 44 45 45 43 42 43 42 41 43 41 41 40 43 42 38 35 34 37 42 46 49 48 47 44 44 44 44 45 43 44 42 39 40 40 38 37 35 35 34
45 45 44 48 47 46 49 44 45 41 44 39 41 44 40 39 39 42 44 46 43 38 38 41 43 39 40 42 46 49 51 50 50 49 49 49 51 53 51 51 49 45 43 42 40 39 37 37 36
54 53 51 50 50 51 47 54 47 41 39 41 39 39 43 43 44 45 45 48 49 48 47 47 48 48 49 50 52 53 54 52 53 52 52 54 57 59 58 55 54 49 46 45 43 42 41 39 37
51 52 55 51 51 53 51 47 43 42 40 42 45 45 46 50 49 50 55 60 60 59 56 54 58 59 57 58 57 60 60 58 56 57 58 57 57 56 59 60 58 53 50 49 48 47 45 42 41
52 56 55 52 49 49 45 49 48 43 45 47 47 53 56 56 56 58 61 63 66 66 62 60 62 65 64 62 63 62 64 62 63 58 57 56 56 55 55 57 60 57 54 53 53 52 49 46 45
55 53 52 51 52 50 45 51 46 50 54 55 59 59 61 61 62 61 62 63 66 69 69 68 66 67 68 64 61 57 63 66 65 62 59 58 58 57 58 58 57 57 58 58 57 56 53 51 49
50 50 52 53 53 54 51 54 51 57 58 61 64 66 68 69 67 64 62 64 66 67 71 73 72 71 70 70 73 61 65 63 64 64 59 59 59 60 59 58 58 58 60 62 60 58 58 55 54
48 51 56 61 58 63 58 57 56 60 63 63 67 71 73 72 75 74 68 66 67 69 71 74 77 75 69 68 71 73 77 71 63 61 62 61 59 59 58 59 60 62 63 65 63 60 62 58 59
49 53 57 61 64 68 66 67 66 64 66 69 68 63 61 64 74 72 71 72 69 72 74 59 62 61 69 71 67 64 68 66 62 59 56 58 59 61 63 58 63 65 62 71 64 61 56 72 60
54 56 62 66 69 72 75 74 70 75 72 70 62 53 51 59 61 63 65 66 71 79 74 73 62 60 65 62 60 60 64 66 60 57 56 55 58 61 63 55 55 50 65 49 48 54 57 54 49
60 61 64 69 73 74 76 82 76 74 75 73 73 69 64 59 54 54 30 39 64 64 68 73 78 56 65 64 58 65 62 67 69 65 64 62 61 58 63 63 63 65 68 71 68 69 64 57 62
Wind_Direction
264 267 272 278 280 284 142 81 161 260 238 242 253 251 262 273 254 244 253 248 271 269 251 263 277 291 300 307 304 306 308 306 303 302 296 296 299 299 299 299 303 301 305 296 278 270 268 261 258
259 263 269 270 281 310 153 230 306 280 255 247 251 259 279 269 265 258 257 261 267 265 258 267 274 288 295 302 305 302 304 308 302 299 296 297 300 299 295 294 293 296 298 303 286 267 265 270 271
259 259 266 268 265 237 164 77 305 274 243 244 258 284 274 280 277 270 260 259 266 265 265 269 278 288 293 299 299 302 301 307 302 298 297 301 303 301 296 295 290 287 287 292 289 273 261 262 268
255 254 258 261 259 247 202 286 296 274 271 255 264 279 280 280 268 253 261 261 265 270 268 274 280 288 291 294 296 298 299 303 299 298 299 306 306 301 295 293 290 286 288 291 289 279 265 260 262
255 255 256 263 256 164 119 296 272 265 267 273 274 274 269 271 264 250 264 264 265 267 270 272 277 282 285 291 293 292 295 297 296 296 306 311 307 298 294 292 293 290 287 288 291 280 270 264 264
256 254 253 251 232 215 210 288 282 273 267 264 271 278 276 269 271 272 271 268 262 263 269 272 274 277 281 288 286 288 292 291 293 301 309 311 307 296 293 291 291 290 290 290 290 286 271 266 263
258 255 246 242 245 246 195 250 268 264 259 271 273 273 277 275 269 268 268 267 267 264 267 269 270 274 277 282 282 285 289 288 291 302 307 313 306 296 293 293 289 289 294 289 288 291 278 268 267
251 252 250 244 234 210 220 251 273 272 279 270 272 275 279 281 273 265 266 268 268 267 266 266 270 274 275 276 277 280 285 288 293 297 303 306 308 305 295 290 290 289 293 289 291 288 289 273 265
252 251 248 246 238 221 215 251 255 261 285 279 275 274 280 272 261 262 264 263 260 260 263 265 267 270 271 272 275 277 280 283 286 288 294 301 302 304 307 308 299 294 292 290 288 288 290 285 271
259 265 264 246 239 239 234 236 254 262 277 282 275 274 268 273 279 277 273 272 266 263 263 265 264 266 269 272 273 277 276 280 283 284 285 291 295 302 311 315 314 311 298 289 286 286 289 291 281
268 271 270 267 254 254 258 254 268 269 277 277 281 285 281 281 281 278 271 269 267 267 271 269 270 275 276 274 277 274 276 281 285 287 283 285 287 295 307 315 318 314 314 305 291 288 286 284 284
277 280 282 279 272 270 278 279 263 266 277 275 278 278 280 289 288 271 269 270 264 262 266 267 268 274 272 273 274 277 280 282 283 283 282 281 281 285 296 306 310 314 314 311 310 298 291 285 284
271 271 283 291 288 277 279 284 284 270 268 268 273 281 284 285 280 270 271 269 269 266 263 269 267 270 270 271 270 272 275 276 277 280 280 281 280 281 288 295 301 306 306 306 306 307 306 303 296
273 272 269 275 288 293 290 285 294 298 281 275 271 263 282 289 279 263 273 278 274 268 266 264 268 268 267 268 270 272 272 271 272 274 277 278 278 281 284 287 292 296 298 299 298 300 301 303 304
277 277 281 286 278 281 284 290 296 295 291 284 277 273 269 283 288 283 265 270 270 271 271 273 269 267 268 269 269 270 271 268 267 269 272 274 277 278 280 283 285 287 290 292 293 294 295 297 299
283 284 277 263 269 273 277 286 286 285 282 287 292 295 297 291 283 290 290 274 264 269 276 277 275 273 273 273 271 271 271 270 271 272 270 270 273 275 275 279 281 283 284 285 288 289 291 292 292
281 283 282 276 264 265 266 277 276 271 277 285 289 290 291 291 291 290 294 289 283 276 276 270 275 274 271 273 276 278 278 278 277 276 274 273 274 274 275 278 279 282 282 285 288 290 293 294 293
279 280 279 281 278 277 280 284 284 281 273 272 277 280 283 286 287 281 279 282 288 288 284 283 280 279 277 275 275 275 276 276 276 274 272 270 270 272 273 274 277 280 282 283 282 286 287 287 288
278 276 277 281 284 285 288 286 285 286 283 283 271 273 281 284 280 279 282 283 280 283 286 283 281 277 280 284 284 280 276 274 273 273 271 272 273 275 274 275 277 280 281 281 281 281 280 281 285
276 279 281 279 275 271 274 279 283 285 285 283 290 292 287 281 285 287 279 276 282 283 283 282 282 280 280 279 280 282 282 281 278 276 276 278 279 280 279 278 278 278 278 278 278 280 281 283 285
278 277 278 277 274 270 276 277 276 271 276 284 282 281 283 281 279 276 280 286 283 279 287 290 290 288 283 282 283 284 281 278 279 283 282 279 277 277 276 276 277 276 275 276 276 275 278 280 283
277 274 274 274 275 277 278 270 268 278 283 278 279 284 280 278 280 282 288 291 290 289 288 282 278 274 272 275 272 273 270 268 274 274 277 279 281 281 280 277 278 276 276 277 277 276 276 278 282
274 276 274 273 272 273 271 273 282 275 278 282 279 272 270 277 281 286 288 287 283 284 280 279 277 276 272 269 268 266 263 263 261 261 261 262 264 269 275 276 275 275 276 276 275 274 278 280 282
263 264 266 269 270 266 281 280 275 277 278 270 274 274 275 275 274 278 278 277 276 276 278 274 271 272 268 264 262 261 262 263 262 260 260 259 260 260 261 266 271 273 273 273 275 275 278 280 282
264 263 265 266 268 273 271 271 282 274 272 276 278 277 273 271 269 269 267 270 268 268 270 271 266 265 263 257 268 249 255 254 256 255 255 256 256 256 258 260 262 266 271 272 274 275 277 279 280
263 267 270 268 269 273 273 273 277 276 278 277 277 279 281 279 272 269 264 262 261 262 264 266 267 266 261 258 256 259 255 258 258 256 252 251 252 254 256 259 261 264 266 266 269 273 275 277 279
270 272 272 275 276 275 276 275 277 278 271 268 269 272 272 273 274 274 265 255 257 258 259 260 261 264 258 256 259 263 267 269 258 256 254 251 252 254 256 257 259 262 265 269 271 271 273 274 275
271 271 270 272 273 274 277 276 277 279 275 274 274 272 270 268 265 265 265 262 255 252 251 251 249 258 258 249 260 262 264 263 264 262 257 255 255 254 253 256 257 257 263 260 263 268 270 272 268
268 273 274 276 275 274 275 273 278 276 277 278 278 268 259 266 275 278 270 260 261 256 254 258 257 256 259 257 253 262 265 268 267 265 260 257 257 257 256 254 258 268 258 262 263 267 261 272 277
265 264 267 270 271 272 272 271 276 274 276 275 275 270 265 271 264 259 274 239 236 246 262 260 257 263 267 270 260 267 256 260 260 263 264 259 256 259 261 257 254 259 256 265 270 268 271 273 279